Hourly Data Report for October 29, 2018

VICTORIA UNIVERSITY CS
BRITISH COLUMBIA
Current Station Operator: ECCC - MSC

48°27'25.200" N
123°18'16.600" W
60.10 m
1018598
71783
WYJ

Download Data

Hourly Data (October 2018)
Hourly Data Report for October 29, 2018
TIME
LST
Temp Definition
°C
Dew Point Definition
°C
Rel Hum Definition
%
Precip. Amount Definition
mm

Wind Dir Definition
10's deg

Wind Spd Definition
km/h
Visibility Definition
km
Stn Press Definition
kPa
Hmdx Definition


Wind Chill Definition


Weather Definition


00:00 7.6 7.2 98 0.0 0 1   100.78     LegendNANA
01:00 6.7 6.4 98 0.0 22 2   100.81     LegendNANA
02:00 5.7 5.4 98 0.0 0 1   100.89     LegendNANA
03:00 5.7 5.5 98 0.0 20 2   100.95     LegendNANA
04:00 6.7 6.5 99 0.2 16 3   100.98     LegendNANA
05:00 5.3 5.1 99 0.0 0 1   101.03     LegendNANA
06:00 5.2 5.0 99 0.0   0   101.06     LegendNANA
07:00 7.7 7.6 99 0.0 14 2   101.12     LegendNANA
08:00 8.5 8.3 99 0.0 13 2   101.21     LegendNANA
09:00 8.5 8.1 97 0.3 21 2   101.34     LegendNANA
10:00 8.5 7.9 96 0.3 20 2   101.36     LegendNANA
11:00 9.2 8.2 93 0.2 4 3   101.39     LegendNANA
12:00 10.6 7.9 84 0.0 4 4   101.42     LegendNANA
13:00 10.2 7.2 82 0.0 13 3   101.45     LegendNANA
14:00 10.6 7.9 83 0.0 14 3   101.48     LegendNANA
15:00 10.4 8.1 86 0.0 18 5   101.50     LegendNANA
16:00 9.8 7.7 87 0.0 18 6   101.54     LegendNANA
17:00 9.5 7.2 85 0.0 21 4   101.58     LegendNANA
18:00 8.7 6.9 89 0.0 0 1   101.61     LegendNANA
19:00 7.3 6.5 95 0.0 21 2   101.65     LegendNANA
20:00 6.7 6.0 95 0.0 0 1   101.68     LegendNANA
21:00 5.8 5.3 97 0.0   0   101.69     LegendNANA
22:00 7.1 6.9 98 0.0 0 1   101.72     LegendNANA
23:00 7.7 7.4 98 0.0 27 2   101.73     LegendNANA

Notes on Data Quality.

Legend

  • E = Estimated
  • M = Missing
  • NA = Not Available*
  • [empty] = Indicates an unobserved value
Date modified: